Change the Weather History Date:

Wednesday, May 28, 2014

  Actual Average Record
Temperature  
Mean Temperature 75 °F 75 °F  
Max Temperature 82 °F 82 °F 87 °F (1980)
Min Temperature 67 °F 68 °F 62 °F (1972)
Degree Days  
Heating Degree Days 0 0  
Month to date heating degree days 0 0  
Since 1 July heating degree days 0 0  
Cooling Degree Days 10 10  
Month to date cooling degree days 283 241  
Year to date cooling degree days 1232 1038  
Growing Degree Days 24 (Base 50)    
Moisture  
Dew Point 68 °F    
Average Humidity 81    
Maximum Humidity 100    
Minimum Humidity 62    
Precipitation  
Precipitation 0.06 in 0.21 in 1.32 in (1987)
Month to date precipitation 5.41 7.50  
Year to date precipitation 45.74 51.29  
Snow  
Snow 0.00 in - - ()
Month to date snowfall 0.0  
Since 1 July snowfall 0.0  
Snow Depth 0.00 in    
Sea Level Pressure  
Sea Level Pressure 30.05 in    
Wind  
Wind Speed 5 mph (West)    
Max Wind Speed 15 mph    
Max Gust Speed 17 mph    
Visibility 9 miles    
Events Rain    
T = Trace of Precipitation, MM = Missing Value Source: NWS Daily Summary

Daily Weather History Graph

Daily Weather History Graph

Search for Another Location

Airport or City:

Trip Planner

Search our weather history database for the weather conditions in past years. The results will help you decide how hot, cold, wet, or windy it might be!

Date:

Astronomy

May. 28, 2014 Rise Set
Actual Time 5:41 AM HST 6:54 PM HST
Civil Twilight 5:17 AM HST 7:18 PM HST
Nautical Twilight 4:48 AM HST 7:46 PM HST
Astronomical Twilight 4:19 AM HST 8:16 PM HST
Moon 5:47 AM HST (5/28) 7:08 PM HST (5/28)
Length of Visible Light 14h 01m
Length of Day
13h 12m
New Moon, 0% of the Moon is Illuminated
May 28
New Moon
Jun 5
First Quarter
Jun 12
Full
Jun 19
Last Quarter
Jun 26
New

Hourly Weather History & Observations

Time (HST) Temp. Heat Index Dew Point Humidity Pressure Visibility Wind Dir Wind Speed Gust Speed Precip Events Conditions
12:53 AM 66.9 °F - 66.9 °F 100% 30.07 in 10.0 mi WSW 9.2 mph - 0.02 in   Overcast
1:26 AM 68.0 °F - 68.0 °F 100% 30.06 in 10.0 mi WSW 8.1 mph - N/A   Overcast
1:51 AM 68.0 °F - 68.0 °F 100% 30.05 in 10.0 mi WSW 8.1 mph - N/A   Overcast
1:53 AM 69.1 °F - 66.9 °F 93% 30.05 in 10.0 mi WSW 6.9 mph - N/A   Overcast
2:53 AM 68.0 °F - 66.9 °F 96% 30.03 in 10.0 mi SW 4.6 mph - N/A   Overcast
3:53 AM 68.0 °F - 68.0 °F 100% 30.03 in 10.0 mi SW 4.6 mph - N/A   Overcast
4:53 AM 66.9 °F - 66.9 °F 100% 30.02 in 10.0 mi WSW 5.8 mph - 0.00 in Rain Light Rain
5:53 AM 68.0 °F - 66.0 °F 93% 30.04 in 10.0 mi SW 6.9 mph - 0.00 in   Mostly Cloudy
6:53 AM 70.0 °F - 66.9 °F 90% 30.05 in 10.0 mi West 3.5 mph - N/A   Mostly Cloudy
7:53 AM 73.0 °F - 68.0 °F 84% 30.07 in 10.0 mi Calm Calm - N/A   Mostly Cloudy
8:15 AM 69.1 °F - 69.1 °F 100% 30.09 in 4.0 mi ENE 8.1 mph - N/A Rain Heavy Rain
8:25 AM 70.0 °F - 70.0 °F 100% 30.08 in 7.0 mi Calm Calm - 0.03 in Rain Light Rain
8:53 AM 71.1 °F - 70.0 °F 96% 30.08 in 10.0 mi SW 5.8 mph - 0.04 in   Mostly Cloudy
9:53 AM 75.9 °F - 68.0 °F 76% 30.08 in 10.0 mi Calm Calm - N/A   Mostly Cloudy
10:53 AM 79.0 °F - 66.0 °F 64% 30.07 in 10.0 mi Variable 5.8 mph - N/A   Mostly Cloudy
11:53 AM 80.1 °F 82.3 °F 66.9 °F 64% 30.06 in 10.0 mi NNE 9.2 mph - N/A   Mostly Cloudy
12:53 PM 77.0 °F - 68.0 °F 74% 30.05 in 9.0 mi Calm Calm - 0.00 in Rain Light Rain
1:53 PM 81.0 °F 83.3 °F 66.9 °F 62% 30.03 in 10.0 mi North 9.2 mph - 0.00 in   Mostly Cloudy
2:53 PM 81.0 °F 83.3 °F 66.9 °F 62% 30.01 in 10.0 mi NNE 8.1 mph - N/A   Mostly Cloudy
3:53 PM 79.0 °F - 68.0 °F 69% 30.00 in 10.0 mi NNE 9.2 mph - N/A   Mostly Cloudy
4:53 PM 78.1 °F - 68.0 °F 71% 30.00 in 10.0 mi NNE 11.5 mph - N/A   Overcast
5:53 PM 71.1 °F - 70.0 °F 96% 30.02 in 10.0 mi North 8.1 mph - 0.00 in   Overcast
6:53 PM 71.1 °F - 69.1 °F 93% 30.04 in 10.0 mi NW 6.9 mph - 0.00 in   Overcast
7:03 PM 71.1 °F - 68.0 °F 90% 30.04 in 10.0 mi WNW 8.1 mph - N/A   Overcast
7:26 PM 70.0 °F - 69.1 °F 97% 30.04 in 10.0 mi West 6.9 mph - N/A   Overcast
7:53 PM 70.0 °F - 68.0 °F 93% 30.05 in 10.0 mi WSW 5.8 mph - N/A   Mostly Cloudy
8:53 PM 70.0 °F - 68.0 °F 93% 30.06 in 10.0 mi Calm Calm - 0.00 in Rain Light Rain
9:53 PM 69.1 °F - 69.1 °F 100% 30.07 in 10.0 mi West 4.6 mph - 0.00 in   Partly Cloudy
10:53 PM 69.1 °F - 69.1 °F 100% 30.07 in 10.0 mi WNW 5.8 mph - 0.02 in Rain Light Rain
11:27 PM 68.0 °F - 68.0 °F 100% 30.06 in 5.0 mi WSW 4.6 mph - 0.02 in Rain Light Rain
11:53 PM 66.9 °F - 66.9 °F 100% 30.05 in 10.0 mi WSW 5.8 mph - 0.03 in   Mostly Cloudy